Location: Betra
(48.4113°N, 8.6634°E)
Time: 15:22:18
(UTC+00:00)

Cosmos 1850 Rocket - Pass Details

Date: 11 August 2024
Orbit: 751 x 783 km, 74.0° (Epoch: 17 September)

Event Time Altitude Azimuth Distance (km) Brightness Sun altitude
Rises 21:33:08 0° 319° (NW) 3,262 8.7 -21.5°
Reaches altitude 10° 21:37:01 10° 291° (WNW) 2,335 7.2 -21.8°
Maximum altitude 21:39:03 12° 268° (W) 2,177 6.7 -22.0°
Drops below altitude 10° 21:41:07 10° 245° (WSW) 2,334 6.5 -22.2°
Enters shadow 21:43:26 - 226° (SW) 2,816 6.8 -22.4°
